Location: Chester
(43.2628°N, 72.5951°W)
Time: 01:21:10
(UTC-05:00)

ISS - Pass Details

Date: 26 January 2021
Orbit: 417 x 422 km, 51.6° (Epoch: 07 March)

Event Time Altitude Azimuth Distance (km) Brightness Sun altitude
Rises 18:59:31 0° 296° (WNW) 2,375 1.0 -22.7°
Reaches altitude 10° 19:02:02 10° 314° (NW) 1,511 -0.4 -23.1°
Enters shadow 19:03:30 17° 338° (NNW) 1,155 -1.4 -23.4°
